Regional Weather Roundup
Issued by NWS Newport/Morehead, NC

Home | Current Version | Previous Version | Text Only | Print | Product List | Glossary On
Versions: 1 2 3 4 5 6 7 8 9 10 11 12 13 14 15 16 17 18 19 20 21 22 23 24 25 26 27 28 29 30 31 32 33 34 35 36 37 38 39 40 41 42 43 44 45 46 47 48 49 50
000
ASUS42 KMHX 312310
RWRMHX
WEATHER ROUNDUP FOR EASTERN NORTH CAROLINA
NATIONAL WEATHER SERVICE NEWPORT/MOREHEAD CITY NC
600 PM EST SAT JAN 31 2015

NOTE: "FAIR" INDICATES FEW OR NO CLOUDS BELOW 12,000 FEET
WITH NO SIGNIFICANT WEATHER AND/OR OBSTRUCTIONS TO VISIBILITY

NCZ015>017-031-032-045>047-102-103-010000-
NORTH COAST

CITY           SKY/WX    TMP DP  RH WIND       PRES   REMARKS
EDENTON        CLEAR     38  16  40 CALM      30.31R
ELIZABETH CITY CLEAR     35  12  38 SW3       30.31R
KITTY HAWK     CLEAR     36  15  43 W6        30.29R
MANTEO         CLEAR     36  16  44 W5        30.31R

$$

NCZ045>047-081-094-103-104-010000-
CENTRAL COAST

CITY           SKY/WX    TMP DP  RH WIND       PRES   REMARKS
FRISCO         CLEAR     36  17  46 NW5       30.32R
SWANQUARTER    NOT AVBL

$$

NCZ095-097-098-100-101-010000-
SOUTHERN COAST

CITY           SKY/WX    TMP DP  RH WIND       PRES   REMARKS
BEAUFORT       CLEAR     38  18  44 CALM      30.33R
CEDAR ISLAND   NOT AVBL
JACKSONVILLE   CLEAR     43  10  26 CALM      30.33R
PINEY ISLAND     N/A    N/A N/A N/A MISG      30.33R
WILMINGTON     CLEAR     44  12  27 CALM      30.33R


$$

NCZ011>013-027>030-043-044-078>080-089-090>093-098-010000-
COASTAL PLAIN

CITY           SKY/WX    TMP DP  RH WIND       PRES   REMARKS
AHOSKIE        CLEAR     36  10  33 CALM      30.31R
CLINTON        CLEAR     41  17  38 CALM      30.32S
ELIZABETHTOWN  CLEAR     43  16  33 CALM      30.32R
GOLDSBORO      CLEAR     41  15  35 CALM      30.30R
GREENVILLE     CLEAR     39  12  33 CALM      30.32R
HAVELOCK       CLEAR     39  12  33 W6        30.34R
KENANSVILLE    CLEAR     37  17  44 CALM      30.33S
KINSTON        CLEAR     37  14  38 CALM      30.33R
NEW BERN       CLEAR     38  16  40 CALM      30.33R
RICHLANDS      CLEAR     39  18  41 CALM      30.34R
ROCKY MOUNT    CLEAR     36  15  42 S3        30.31R
WASHINGTON     CLEAR     37  12  35 CALM      30.32R
WHITEVILLE     CLEAR     45  13  27 CALM      30.32R

$$

AMZ130-135-150-152-154-156-158-170-250-252-270-ANZ085-086-088-633-658-670-010000-
MARINE OBSERVATIONS

STATION/POSITION TIME  TEMP    WIND        PRES    WAVE   SWELL
                       AIR SEA DIR/SP/G            HT/PER HT/PER
                 (UTC) (F)     (DEG/KT/KT) (MB)    (FT/S) (FT/S)
CHESAPEAKE LIGHT 2200   35     310/ 18/ 20 1025.7
64 E VA BEACH    2300   37 48  310/ 23/ 29 1023.8    9/ 9   3/ 9
DUCK             2300   38 40  300/  8/ 10 1025.0
2 E DUCK         2300      41                N/A     4/ 6   2/11
10 NE DUCK       2300      43                N/A     5/ 7   2/11
OREGON INLET     2300   36 40  280/  8/ 12 1026.0
13E OREGON INLT  2300      45                N/A     6/ 9   2/11
HATTERAS CG      2300   40 41  310/ 10/ 13 1026.8
DIAMOND BUOY     2300   41 70  300/ 14/ 16 1026.5    5/10   3/10
17 S OCRACOKE    NOT AVBL
CAPE LOOKOUT     2300   41     200/  3/  3 1027.0
BEAUFORT LAB     2300   42 45  170/  3/  6 1025.8
27 SE WRIGHTSVLE NOT AVBL
5 SE WRIGHTSVLE  2200   46 51  200/  6/  6 1026.9
225 S CAPE HAT   2202   54 69  340/ 16/ 21 1026.0    9/10   7/10
41 SE CHARLESTON 2300   50 69   50/  8/ 12 1027.4    4/ 7   3/ 7

$$


USA.gov is the U.S. government's official web portal to all federal, state and local government web resources and services.